Regional Weather Roundup
Issued by NWS

Home | Current Version | Previous Version | Text Only | Print | Product List | Glossary Off
Versions: 1 2 3 4 5 6 7 8 9 10 11 12 13 14 15 16 17 18 19 20 21 22 23 24 25 26 27 28 29 30 31 32 33 34 35 36 37 38 39 40 41 42 43 44 45 46 47 48 49 50

000
ASUS43 KFSD 111302
RWRSD

WEATHER ROUNDUP FOR SOUTH DAKOTA
NATIONAL WEATHER SERVICE SIOUX FALLS SD
700 AM CST MON DEC 11 2017

NOTE: "FAIR" INDICATES FEW OR NO CLOUDS BELOW 12,000 FEET WITH NO
SIGNIFICANT WEATHER AND/OR OBSTRUCTIONS TO VISIBILITY.


SDZ001>005-009-010-012>017-111400-
NORTHWEST AND NORTH CENTRAL SOUTH DAKOTA

CITY           SKY/WX    TMP DP  RH WIND       PRES   REMARKS
BUFFALO          N/A     38  25  59 NW38G52   30.11R
FAITH            N/A     39  27  62 NW41G52   30.10R
MOBRIDGE       CLOUDY    40  32  73 NW25G39   29.98R
$$

SDZ012>016-024>037-041>051-057-063-072>074-111400-
SOUTHWEST AND SOUTH CENTRAL SOUTH DAKOTA

CITY           SKY/WX    TMP DP  RH WIND       PRES   REMARKS
RAPID CTY ARPT CLOUDY    46  11  24 NW41G52   30.16R
PIERRE         CLOUDY    43  30  60 NW29G39   30.04R
CUSTER         CLOUDY    39   8  27 NW21G38   30.16S
ELLSWORTH AFB  PTCLDY    45  13  27 NW37G51   30.15R
PHILIP         CLOUDY    44  24  45 NW22G29   30.14R
PINE RIDGE     CLOUDY    32  22  66 SW8       30.20S WCI  25
SPEARFISH      FAIR      39  16  38 W21G37    30.24S
WINNER         CLOUDY    44  26  49 NW32G46   30.07R
$$

SDZ004>011-016>023-039-040-111400-
NORTHEAST SOUTH DAKOTA

CITY           SKY/WX    TMP DP  RH WIND       PRES   REMARKS
ABERDEEN       CLOUDY    41  34  76 NW26G36   29.89R
WATERTOWN      CLOUDY    36  34  92 NW23G32   29.80R
BROOKINGS      CLOUDY    38  30  73 NW23G30   29.80S
SISSETON         N/A     39  35  86 NW28G33   29.79R
$$

SDZ017-020-022-023-036>040-048>070-111400-
SOUTHEAST SOUTH DAKOTA

CITY           SKY/WX    TMP DP  RH WIND       PRES   REMARKS
SIOUX FALLS    CLOUDY    40  29  64 NW18G26   29.84R
HURON          CLOUDY    41  32  70 NW29G37   29.90R
CHAMBERLAIN    CLOUDY    44  30  58 NW25G39   30.00S
MITCHELL       CLOUDY    42  30  62 NW26G37   29.93R
YANKTON        PTCLDY    43  27  53 NW30G38   29.92S
$$

ABBREVIATIONS USED IN REMARKS
   TC - TEMPERATURE IN CELSIUS
  WCI - WIND CHILL INDEX
   HX - HEAT INDEX
  VSB - VISIBILITY





USA.gov is the U.S. government's official web portal to all federal, state and local government web resources and services.